Weather History for Lincoln, NE

Change the Weather History Date:

Tuesday, July 9, 2013

  Actual Average Record
Temperature  
Mean Temperature 87 °F 78 °F  
Max Temperature 98 °F 89 °F 104 °F (1930)
Min Temperature 75 °F 66 °F 49 °F (1895)
Degree Days  
Heating Degree Days 0 0  
Month to date heating degree days 0 0  
Since 1 June heating degree days 20 16  
Since 1 July heating degree days 0 0  
Cooling Degree Days 22 13  
Month to date cooling degree days 101 110  
Year to date cooling degree days 419 431  
Since 1 June cooling degree days 332 352  
Growing Degree Days 36 (Base 50)    
Moisture  
Dew Point 68 °F    
Average Humidity 57    
Maximum Humidity 74    
Minimum Humidity 40    
Precipitation  
Precipitation T in 0.10 in 2.14 in (1982)
Month to date precipitation T 1.07  
Year to date precipitation 18.34 15.76  
Snow  
Snow 0.00 in 0.00 in - ()
Month to date snowfall 0.0 0.0  
Since 1 July snowfall 0.0 0.0  
Snow Depth 0.00 in    
Sea Level Pressure  
Sea Level Pressure 29.87 in    
Wind  
Wind Speed 7 mph (East)    
Max Wind Speed 25 mph    
Max Gust Speed 35 mph    
Visibility 10 miles    
Events Rain    
T = Trace of Precipitation, MM = Missing Value Source: NWS Daily Summary

Daily Weather History Graph

Daily Weather History Graph

Search for Another Location

Airport:

Trip Planner

Search our weather history database for the weather conditions in past years. The results will help you decide how hot, cold, wet, or windy it might be!

Date:

Astronomy

Jul. 09, 2013 Rise Set
Actual Time 6:04 AM CDT 9:00 PM CDT
Civil Twilight 5:31 AM CDT 9:33 PM CDT
Nautical Twilight 4:49 AM CDT 10:14 PM CDT
Astronomical Twilight 4:01 AM CDT 11:02 PM CDT
Moon 7:30 AM CDT (7/9) 9:37 PM CDT (7/9)
Length of Visible Light 16h 01m
Length of Day
14h 56m
New Moon, 2% of the Moon is Illuminated
Jul 9
New Moon
Jul 15
First Quarter
Jul 22
Full
Jul 29
Last Quarter
Aug 6
New

Hourly Weather History & Observations

Time (CDT) Temp. Heat Index Dew Point Humidity Pressure Visibility Wind Dir Wind Speed Gust Speed Precip Events Conditions
12:54 AM 80.1 °F 82.1 °F 66.0 °F 62% 29.88 in 10.0 mi South 10.4 mph - N/A   Clear
1:54 AM 82.0 °F 83.8 °F 64.9 °F 56% 29.87 in 10.0 mi South 12.7 mph - N/A   Clear
2:54 AM 81.0 °F 83.0 °F 66.0 °F 60% 29.88 in 10.0 mi SSW 10.4 mph - 0.00 in Rain Light Rain
3:54 AM 79.0 °F - 64.0 °F 60% 29.83 in 10.0 mi South 16.1 mph - 0.00 in Rain Light Rain
4:54 AM 77.0 °F - 63.0 °F 62% 29.82 in 10.0 mi SSE 8.1 mph - 0.00 in   Partly Cloudy
5:54 AM 75.0 °F - 64.0 °F 69% 29.85 in 10.0 mi SSE 4.6 mph - N/A   Partly Cloudy
6:54 AM 77.0 °F - 66.0 °F 69% 29.86 in 10.0 mi East 3.5 mph - N/A   Partly Cloudy
7:54 AM 80.1 °F 82.7 °F 68.0 °F 67% 29.88 in 10.0 mi SE 4.6 mph - N/A   Clear
8:54 AM 82.9 °F 85.8 °F 68.0 °F 60% 29.90 in 10.0 mi Calm Calm - N/A   Clear
9:54 AM 84.9 °F 88.8 °F 69.1 °F 59% 29.89 in 10.0 mi Calm Calm - N/A   Clear
10:54 AM 88.0 °F 92.1 °F 69.1 °F 53% 29.89 in 10.0 mi Variable 3.5 mph - N/A   Clear
11:54 AM 89.1 °F 93.7 °F 69.1 °F 52% 29.88 in 10.0 mi Variable 4.6 mph - N/A   Clear
12:54 PM 91.0 °F 95.6 °F 69.1 °F 48% 29.88 in 10.0 mi Variable 5.8 mph - N/A   Clear
1:54 PM 93.0 °F 97.9 °F 69.1 °F 45% 29.87 in 10.0 mi WSW 6.9 mph - N/A   Clear
2:54 PM 93.9 °F 98.6 °F 68.0 °F 43% 29.86 in 10.0 mi Calm Calm - N/A   Clear
3:54 PM 96.1 °F 101.6 °F 69.1 °F 41% 29.86 in 10.0 mi Variable 3.5 mph - N/A   Clear
4:54 PM 97.0 °F 102.2 °F 68.0 °F 39% 29.86 in 10.0 mi NNW 5.8 mph - N/A   Clear
5:54 PM 96.1 °F 102.9 °F 70.0 °F 43% 29.85 in 10.0 mi North 9.2 mph - N/A   Clear
6:54 PM 93.0 °F 100.1 °F 71.1 °F 49% 29.85 in 10.0 mi North 11.5 mph - N/A   Clear
7:54 PM 87.1 °F 93.6 °F 72.0 °F 61% 29.86 in 10.0 mi NNE 8.1 mph - N/A   Clear
8:54 PM 84.9 °F 90.1 °F 71.1 °F 63% 29.88 in 10.0 mi NNE 9.2 mph - N/A   Clear
9:54 PM 82.9 °F 88.0 °F 72.0 °F 69% 29.88 in 10.0 mi NE 11.5 mph - N/A   Clear
10:54 PM 81.0 °F 84.9 °F 71.1 °F 72% 29.93 in 10.0 mi North 10.4 mph - N/A   Partly Cloudy
11:54 PM 79.0 °F - 69.1 °F 72% 29.94 in 10.0 mi North 9.2 mph - N/A   Clear